Starlink 32244

operational
NORAD ID: 60411 Int'l Des: 2024-141 Owner: SPXS Country: US Constellation: starlink
LEOCIRCULAR

Über Starlink 32244

Beschreibung wird geladen...

Live-Position

3D-Globus wird geladen...

Nächste Überflüge

Höhenverlauf

Altitude vs Time

uPlot chart will show altitude changes over time

Zweizeiliger Elementsatz

1 60411U 24141P 25351.49729556 -.00001210 00000-0 -28728-4 0 9994
2 60411 53.1611 264.5748 0001213 87.6964 272.4176 15.30190951 76998
Epoch: 17. Dez. 2025 • Age: 19 hours

Aktueller Status

Höhe 483.8 km
Geschwindigkeit 7.62 km/s
Subsatellitenpunkt -27.09°S, 52.5°E
Startdatum 10. Aug. 2024
Alter 1.3 years
Typ internet

Technische Details

Klassifizierung Payload
Masse 730.00 kg
Trockenmasse 700.00 kg
Gesamtmasse 730.00 kg
Länge 0.30 m
Durchmesser 4.10 m
Spannweite 29.00 m
Form Box + pan
Hersteller SPXS
Bus-Typ Starlink V2M
Phasenstatus In Orbit
Besitzer/Staat SPXS/US

Große Konstellationen

Loading constellations...